owner,sensor,date,latitude,longitude,vertical_datum,sea_water_temperature,qcFlag 
DISL,ioos:station:DISL:DISL:1,2019-06-01T00:30:00Z,30.2513,-88.0778,-1.72,30.87,11111222 
DISL,ioos:station:DISL:DISL:1,2019-06-01T02:00:00Z,30.2513,-88.0778,-1.72,31.23,11111222 
DISL,ioos:station:DISL:DISL:1,2019-06-01T02:30:00Z,30.2513,-88.0778,-1.72,31.29,11111222 
DISL,ioos:station:DISL:DISL:1,2019-06-01T04:00:00Z,30.2513,-88.0778,-1.72,30.98,11111222 
DISL,ioos:station:DISL:DISL:1,2019-06-01T05:00:00Z,30.2513,-88.0778,-1.72,30.9,11111222 
DISL,ioos:station:DISL:DISL:1,2019-06-01T06:00:00Z,30.2513,-88.0778,-1.72,30.78,11111222 
DISL,ioos:station:DISL:DISL:1,2019-06-01T07:00:00Z,30.2513,-88.0778,-1.72,30.63,11111222 
DISL,ioos:station:DISL:DISL:1,2019-06-01T08:00:00Z,30.2513,-88.0778,-1.72,30.46,11111222 
DISL,ioos:station:DISL:DISL:1,2019-06-01T09:00:00Z,30.2513,-88.0778,-1.72,29.77,11111222 
DISL,ioos:station:DISL:DISL:1,2019-06-01T10:00:00Z,30.2513,-88.0778,-1.72,29.87,11111222 
DISL,ioos:station:DISL:DISL:1,2019-06-01T11:00:00Z,30.2513,-88.0778,-1.72,29.78,11111222 
DISL,ioos:station:DISL:DISL:1,2019-06-01T12:00:00Z,30.2513,-88.0778,-1.72,29.89,11111222 
DISL,ioos:station:DISL:DISL:1,2019-06-01T13:00:00Z,30.2513,-88.0778,-1.72,29.79,11111222 
DISL,ioos:station:DISL:DISL:1,2019-06-01T14:00:00Z,30.2513,-88.0778,-1.72,29.62,11111222 
DISL,ioos:station:DISL:DISL:1,2019-06-01T15:00:00Z,30.2513,-88.0778,-1.72,29.85,11111222 
DISL,ioos:station:DISL:DISL:1,2019-06-01T16:00:00Z,30.2513,-88.0778,-1.72,30.14,11111222 
DISL,ioos:station:DISL:DISL:1,2019-06-01T17:00:00Z,30.2513,-88.0778,-1.72,30.43,11111222 
DISL,ioos:station:DISL:DISL:1,2019-06-01T18:00:00Z,30.2513,-88.0778,-1.72,30.56,11111222 
DISL,ioos:station:DISL:DISL:1,2019-06-01T19:00:00Z,30.2513,-88.0778,-1.72,31.04,11111222 
DISL,ioos:station:DISL:DISL:1,2019-06-01T20:00:00Z,30.2513,-88.0778,-1.72,31.43,11111222 
DISL,ioos:station:DISL:DISL:1,2019-06-01T21:00:00Z,30.2513,-88.0778,-1.72,31.64,11111222 
DISL,ioos:station:DISL:DISL:1,2019-06-01T22:00:00Z,30.2513,-88.0778,-1.72,31.69,11111222 
DISL,ioos:station:DISL:DISL:1,2019-06-01T23:00:00Z,30.2513,-88.0778,-1.72,31.01,11111222 
DISL,ioos:station:DISL:DISL:1,2019-06-02T00:00:00Z,30.2513,-88.0778,-1.72,30.82,11111222 
DISL,ioos:station:DISL:DISL:1,2019-06-02T01:00:00Z,30.2513,-88.0778,-1.72,30.83,11111222 
DISL,ioos:station:DISL:DISL:1,2019-06-02T02:00:00Z,30.2513,-88.0778,-1.72,30.52,11111222 
DISL,ioos:station:DISL:DISL:1,2019-06-02T03:00:00Z,30.2513,-88.0778,-1.72,30.54,11111222 
DISL,ioos:station:DISL:DISL:1,2019-06-02T04:00:00Z,30.2513,-88.0778,-1.72,30.51,11111222 
DISL,ioos:station:DISL:DISL:1,2019-06-02T05:00:00Z,30.2513,-88.0778,-1.72,30.44,11111222 
DISL,ioos:station:DISL:DISL:1,2019-06-02T06:00:00Z,30.2513,-88.0778,-1.72,30.5,11111222 
DISL,ioos:station:DISL:DISL:1,2019-06-02T07:00:00Z,30.2513,-88.0778,-1.72,30.52,11111222 
DISL,ioos:station:DISL:DISL:1,2019-06-02T08:00:00Z,30.2513,-88.0778,-1.72,30.49,11111222 
DISL,ioos:station:DISL:DISL:1,2019-06-02T09:00:00Z,30.2513,-88.0778,-1.72,28.99,11111222 
DISL,ioos:station:DISL:DISL:1,2019-06-02T10:00:00Z,30.2513,-88.0778,-1.72,28.68,11111222 
DISL,ioos:station:DISL:DISL:1,2019-06-02T11:00:00Z,30.2513,-88.0778,-1.72,28.02,11111222 
DISL,ioos:station:DISL:DISL:1,2019-06-02T12:00:00Z,30.2513,-88.0778,-1.72,28.26,11111222 
DISL,ioos:station:DISL:DISL:1,2019-06-02T13:00:00Z,30.2513,-88.0778,-1.72,28.0,11111222 
DISL,ioos:station:DISL:DISL:1,2019-06-02T14:00:00Z,30.2513,-88.0778,-1.72,27.66,11111222 
DISL,ioos:station:DISL:DISL:1,2019-06-02T15:00:00Z,30.2513,-88.0778,-1.72,29.35,11111222 
DISL,ioos:station:DISL:DISL:1,2019-06-02T16:00:00Z,30.2513,-88.0778,-1.72,30.13,11111222 
DISL,ioos:station:DISL:DISL:1,2019-06-02T17:00:00Z,30.2513,-88.0778,-1.72,30.36,11111222 
DISL,ioos:station:DISL:DISL:1,2019-06-02T18:00:00Z,30.2513,-88.0778,-1.72,30.9,11111222 
DISL,ioos:station:DISL:DISL:1,2019-06-02T19:00:00Z,30.2513,-88.0778,-1.72,31.33,11111222 
DISL,ioos:station:DISL:DISL:1,2019-06-02T20:00:00Z,30.2513,-88.0778,-1.72,31.52,11111222 
DISL,ioos:station:DISL:DISL:1,2019-06-02T21:00:00Z,30.2513,-88.0778,-1.72,32.04,11111222 
DISL,ioos:station:DISL:DISL:1,2019-06-02T22:00:00Z,30.2513,-88.0778,-1.72,31.81,11111222 
DISL,ioos:station:DISL:DISL:1,2019-06-02T23:00:00Z,30.2513,-88.0778,-1.72,31.68,11111222 
DISL,ioos:station:DISL:DISL:1,2019-06-03T00:00:00Z,30.2513,-88.0778,-1.72,31.63,11111222 
DISL,ioos:station:DISL:DISL:1,2019-06-03T01:00:00Z,30.2513,-88.0778,-1.72,30.87,11111222 
DISL,ioos:station:DISL:DISL:1,2019-06-03T02:00:00Z,30.2513,-88.0778,-1.72,30.38,11111222 
DISL,ioos:station:DISL:DISL:1,2019-06-03T03:00:00Z,30.2513,-88.0778,-1.72,30.03,11111222 
DISL,ioos:station:DISL:DISL:1,2019-06-03T04:00:00Z,30.2513,-88.0778,-1.72,29.96,11111222 
DISL,ioos:station:DISL:DISL:1,2019-06-03T05:00:00Z,30.2513,-88.0778,-1.72,30.09,11111222 
DISL,ioos:station:DISL:DISL:1,2019-06-03T06:00:00Z,30.2513,-88.0778,-1.72,30.77,11111222 
DISL,ioos:station:DISL:DISL:1,2019-06-03T07:00:00Z,30.2513,-88.0778,-1.72,30.72,11111222 
DISL,ioos:station:DISL:DISL:1,2019-06-03T08:00:00Z,30.2513,-88.0778,-1.72,30.52,11111222 
DISL,ioos:station:DISL:DISL:1,2019-06-03T09:00:00Z,30.2513,-88.0778,-1.72,29.62,11111222 
DISL,ioos:station:DISL:DISL:1,2019-06-03T10:00:00Z,30.2513,-88.0778,-1.72,28.62,11111222 
DISL,ioos:station:DISL:DISL:1,2019-06-03T11:00:00Z,30.2513,-88.0778,-1.72,28.55,11111222 
DISL,ioos:station:DISL:DISL:1,2019-06-03T12:00:00Z,30.2513,-88.0778,-1.72,28.51,11111222 
DISL,ioos:station:DISL:DISL:1,2019-06-03T13:00:00Z,30.2513,-88.0778,-1.72,28.59,11111222 
DISL,ioos:station:DISL:DISL:1,2019-06-03T14:00:00Z,30.2513,-88.0778,-1.72,28.57,11111222 
DISL,ioos:station:DISL:DISL:1,2019-06-03T15:00:00Z,30.2513,-88.0778,-1.72,28.33,11111222 
DISL,ioos:station:DISL:DISL:1,2019-06-03T16:00:00Z,30.2513,-88.0778,-1.72,28.44,11111222 
DISL,ioos:station:DISL:DISL:1,2019-06-03T17:00:00Z,30.2513,-88.0778,-1.72,30.67,11111222 
DISL,ioos:station:DISL:DISL:1,2019-06-03T18:00:00Z,30.2513,-88.0778,-1.72,31.19,11111222 
DISL,ioos:station:DISL:DISL:1,2019-06-03T19:00:00Z,30.2513,-88.0778,-1.72,31.53,11111222 
DISL,ioos:station:DISL:DISL:1,2019-06-03T20:00:00Z,30.2513,-88.0778,-1.72,31.71,11111222 
DISL,ioos:station:DISL:DISL:1,2019-06-03T21:00:00Z,30.2513,-88.0778,-1.72,31.92,11111222 
DISL,ioos:station:DISL:DISL:1,2019-06-03T22:00:00Z,30.2513,-88.0778,-1.72,32.81,11111222 
DISL,ioos:station:DISL:DISL:1,2019-06-03T23:00:00Z,30.2513,-88.0778,-1.72,31.76,11111222 
DISL,ioos:station:DISL:DISL:1,2019-06-04T00:00:00Z,30.2513,-88.0778,-1.72,31.51,11111222 
DISL,ioos:station:DISL:DISL:1,2019-06-04T01:00:00Z,30.2513,-88.0778,-1.72,30.84,11111222 
DISL,ioos:station:DISL:DISL:1,2019-06-04T02:00:00Z,30.2513,-88.0778,-1.72,30.68,11111222 
DISL,ioos:station:DISL:DISL:1,2019-06-04T03:00:00Z,30.2513,-88.0778,-1.72,30.61,11111222 
DISL,ioos:station:DISL:DISL:1,2019-06-04T04:00:00Z,30.2513,-88.0778,-1.72,30.37,11111222 
DISL,ioos:station:DISL:DISL:1,2019-06-04T05:00:00Z,30.2513,-88.0778,-1.72,30.36,11111222 
DISL,ioos:station:DISL:DISL:1,2019-06-04T06:00:00Z,30.2513,-88.0778,-1.72,30.5,11111222 
DISL,ioos:station:DISL:DISL:1,2019-06-04T07:00:00Z,30.2513,-88.0778,-1.72,30.5,11111222 
DISL,ioos:station:DISL:DISL:1,2019-06-04T08:00:00Z,30.2513,-88.0778,-1.72,30.58,11111222 
DISL,ioos:station:DISL:DISL:1,2019-06-04T09:00:00Z,30.2513,-88.0778,-1.72,30.66,11111222 
DISL,ioos:station:DISL:DISL:1,2019-06-04T10:00:00Z,30.2513,-88.0778,-1.72,30.12,11111222 
DISL,ioos:station:DISL:DISL:1,2019-06-04T11:00:00Z,30.2513,-88.0778,-1.72,29.61,11111222 
DISL,ioos:station:DISL:DISL:1,2019-06-04T12:00:00Z,30.2513,-88.0778,-1.72,29.39,11111222 
DISL,ioos:station:DISL:DISL:1,2019-06-04T13:00:00Z,30.2513,-88.0778,-1.72,29.33,11111222 
DISL,ioos:station:DISL:DISL:1,2019-06-04T14:00:00Z,30.2513,-88.0778,-1.72,29.09,11111222 
DISL,ioos:station:DISL:DISL:1,2019-06-04T15:00:00Z,30.2513,-88.0778,-1.72,29.08,11111222 
DISL,ioos:station:DISL:DISL:1,2019-06-04T16:00:00Z,30.2513,-88.0778,-1.72,29.84,11111222 
DISL,ioos:station:DISL:DISL:1,2019-06-04T17:00:00Z,30.2513,-88.0778,-1.72,31.1,11111222 
DISL,ioos:station:DISL:DISL:1,2019-06-04T18:00:00Z,30.2513,-88.0778,-1.72,31.36,11111222 
DISL,ioos:station:DISL:DISL:1,2019-06-04T19:00:00Z,30.2513,-88.0778,-1.72,31.69,11111222 
DISL,ioos:station:DISL:DISL:1,2019-06-04T20:00:00Z,30.2513,-88.0778,-1.72,31.76,11111222 
DISL,ioos:station:DISL:DISL:1,2019-06-04T21:00:00Z,30.2513,-88.0778,-1.72,32.09,11111222 
DISL,ioos:station:DISL:DISL:1,2019-06-04T22:00:00Z,30.2513,-88.0778,-1.72,32.3,11111222 
DISL,ioos:station:DISL:DISL:1,2019-06-04T23:00:00Z,30.2513,-88.0778,-1.72,32.31,11111222 
DISL,ioos:station:DISL:DISL:1,2019-06-05T00:00:00Z,30.2513,-88.0778,-1.72,30.9,11111222 
DISL,ioos:station:DISL:DISL:1,2019-06-05T01:00:00Z,30.2513,-88.0778,-1.72,30.56,11111222 
DISL,ioos:station:DISL:DISL:1,2019-06-05T02:00:00Z,30.2513,-88.0778,-1.72,30.31,11111222 
DISL,ioos:station:DISL:DISL:1,2019-06-05T03:00:00Z,30.2513,-88.0778,-1.72,30.22,11111222 
DISL,ioos:station:DISL:DISL:1,2019-06-05T04:00:00Z,30.2513,-88.0778,-1.72,30.21,11111222 
DISL,ioos:station:DISL:DISL:1,2019-06-05T05:00:00Z,30.2513,-88.0778,-1.72,30.0,11111222 
DISL,ioos:station:DISL:DISL:1,2019-06-05T06:00:00Z,30.2513,-88.0778,-1.72,29.85,11111222 
DISL,ioos:station:DISL:DISL:1,2019-06-05T07:00:00Z,30.2513,-88.0778,-1.72,29.95,11111222 
DISL,ioos:station:DISL:DISL:1,2019-06-05T08:00:00Z,30.2513,-88.0778,-1.72,29.89,11111222 
DISL,ioos:station:DISL:DISL:1,2019-06-05T09:00:00Z,30.2513,-88.0778,-1.72,29.88,11111222 
DISL,ioos:station:DISL:DISL:1,2019-06-05T10:00:00Z,30.2513,-88.0778,-1.72,30.17,11111222 
DISL,ioos:station:DISL:DISL:1,2019-06-05T11:00:00Z,30.2513,-88.0778,-1.72,30.33,11111222 
DISL,ioos:station:DISL:DISL:1,2019-06-05T12:00:00Z,30.2513,-88.0778,-1.72,30.2,11111222 
DISL,ioos:station:DISL:DISL:1,2019-06-05T13:00:00Z,30.2513,-88.0778,-1.72,30.06,11111222 
DISL,ioos:station:DISL:DISL:1,2019-06-05T14:00:00Z,30.2513,-88.0778,-1.72,29.44,11111222 
DISL,ioos:station:DISL:DISL:1,2019-06-05T15:00:00Z,30.2513,-88.0778,-1.72,28.73,11111222 
DISL,ioos:station:DISL:DISL:1,2019-06-05T16:00:00Z,30.2513,-88.0778,-1.72,29.17,11111222 
DISL,ioos:station:DISL:DISL:1,2019-06-05T17:00:00Z,30.2513,-88.0778,-1.72,29.41,11111222 
DISL,ioos:station:DISL:DISL:1,2019-06-05T18:00:00Z,30.2513,-88.0778,-1.72,30.47,11111222 
DISL,ioos:station:DISL:DISL:1,2019-06-05T19:00:00Z,30.2513,-88.0778,-1.72,30.43,11111222 
DISL,ioos:station:DISL:DISL:1,2019-06-05T20:00:00Z,30.2513,-88.0778,-1.72,30.17,11111222 
DISL,ioos:station:DISL:DISL:1,2019-06-05T21:00:00Z,30.2513,-88.0778,-1.72,30.08,11111222 
DISL,ioos:station:DISL:DISL:1,2019-06-05T22:00:00Z,30.2513,-88.0778,-1.72,30.0,11111222 
DISL,ioos:station:DISL:DISL:1,2019-06-05T23:00:00Z,30.2513,-88.0778,-1.72,29.16,11111222 
DISL,ioos:station:DISL:DISL:1,2019-06-06T00:00:00Z,30.2513,-88.0778,-1.72,29.23,11111222 
DISL,ioos:station:DISL:DISL:1,2019-06-06T01:00:00Z,30.2513,-88.0778,-1.72,29.19,11111222 
DISL,ioos:station:DISL:DISL:1,2019-06-06T02:00:00Z,30.2513,-88.0778,-1.72,29.12,11111222 
DISL,ioos:station:DISL:DISL:1,2019-06-06T03:00:00Z,30.2513,-88.0778,-1.72,28.96,11111222 
DISL,ioos:station:DISL:DISL:1,2019-06-06T03:30:00Z,30.2513,-88.0778,-1.72,29.0,11111222 
DISL,ioos:station:DISL:DISL:1,2019-06-06T04:30:00Z,30.2513,-88.0778,-1.72,28.99,11111222 
DISL,ioos:station:DISL:DISL:1,2019-06-06T06:00:00Z,30.2513,-88.0778,-1.72,28.87,11111222 
DISL,ioos:station:DISL:DISL:1,2019-06-06T07:00:00Z,30.2513,-88.0778,-1.72,28.84,11111222 
DISL,ioos:station:DISL:DISL:1,2019-06-06T08:00:00Z,30.2513,-88.0778,-1.72,28.79,11111222 
DISL,ioos:station:DISL:DISL:1,2019-06-06T09:00:00Z,30.2513,-88.0778,-1.72,28.37,11111222 
DISL,ioos:station:DISL:DISL:1,2019-06-06T10:00:00Z,30.2513,-88.0778,-1.72,28.25,11111222 
DISL,ioos:station:DISL:DISL:1,2019-06-06T11:00:00Z,30.2513,-88.0778,-1.72,27.64,11111222 
DISL,ioos:station:DISL:DISL:1,2019-06-06T12:00:00Z,30.2513,-88.0778,-1.72,28.3,11111222 
DISL,ioos:station:DISL:DISL:1,2019-06-06T13:00:00Z,30.2513,-88.0778,-1.72,28.34,11111222 
DISL,ioos:station:DISL:DISL:1,2019-06-06T14:00:00Z,30.2513,-88.0778,-1.72,28.26,11111222 
DISL,ioos:station:DISL:DISL:1,2019-06-06T15:00:00Z,30.2513,-88.0778,-1.72,28.25,11111222 
DISL,ioos:station:DISL:DISL:1,2019-06-06T16:00:00Z,30.2513,-88.0778,-1.72,27.54,11111222 
DISL,ioos:station:DISL:DISL:1,2019-06-06T17:00:00Z,30.2513,-88.0778,-1.72,27.54,11111222 
DISL,ioos:station:DISL:DISL:1,2019-06-06T18:00:00Z,30.2513,-88.0778,-1.72,27.55,11111222 
DISL,ioos:station:DISL:DISL:1,2019-06-06T19:00:00Z,30.2513,-88.0778,-1.72,27.5,11111222 
DISL,ioos:station:DISL:DISL:1,2019-06-06T20:00:00Z,30.2513,-88.0778,-1.72,27.54,11111222 
DISL,ioos:station:DISL:DISL:1,2019-06-06T21:00:00Z,30.2513,-88.0778,-1.72,27.66,11111222 
DISL,ioos:station:DISL:DISL:1,2019-06-06T22:00:00Z,30.2513,-88.0778,-1.72,27.7,11111222 
DISL,ioos:station:DISL:DISL:1,2019-06-06T23:00:00Z,30.2513,-88.0778,-1.72,27.84,11111222 
DISL,ioos:station:DISL:DISL:1,2019-06-06T23:30:00Z,30.2513,-88.0778,-1.72,27.87,11111222 
DISL,ioos:station:DISL:DISL:1,2019-06-07T00:30:00Z,30.2513,-88.0778,-1.72,27.93,11111222 
DISL,ioos:station:DISL:DISL:1,2019-06-07T01:30:00Z,30.2513,-88.0778,-1.72,27.87,11111222 
DISL,ioos:station:DISL:DISL:1,2019-06-07T03:00:00Z,30.2513,-88.0778,-1.72,27.5,11111222 
DISL,ioos:station:DISL:DISL:1,2019-06-07T03:30:00Z,30.2513,-88.0778,-1.72,27.51,11111222 
DISL,ioos:station:DISL:DISL:1,2019-06-07T05:00:00Z,30.2513,-88.0778,-1.72,27.36,11111222 
DISL,ioos:station:DISL:DISL:1,2019-06-07T06:00:00Z,30.2513,-88.0778,-1.72,27.85,11111222 
DISL,ioos:station:DISL:DISL:1,2019-06-07T07:00:00Z,30.2513,-88.0778,-1.72,27.9,11111222 
DISL,ioos:station:DISL:DISL:1,2019-06-07T08:00:00Z,30.2513,-88.0778,-1.72,27.78,11111222 
DISL,ioos:station:DISL:DISL:1,2019-06-07T09:00:00Z,30.2513,-88.0778,-1.72,27.75,11111222 
DISL,ioos:station:DISL:DISL:1,2019-06-07T10:00:00Z,30.2513,-88.0778,-1.72,27.73,11111222 
DISL,ioos:station:DISL:DISL:1,2019-06-07T11:00:00Z,30.2513,-88.0778,-1.72,27.44,11111222 
DISL,ioos:station:DISL:DISL:1,2019-06-07T12:00:00Z,30.2513,-88.0778,-1.72,27.42,11111222 
DISL,ioos:station:DISL:DISL:1,2019-06-07T13:00:00Z,30.2513,-88.0778,-1.72,27.57,11111222 
DISL,ioos:station:DISL:DISL:1,2019-06-07T14:00:00Z,30.2513,-88.0778,-1.72,27.46,11111222 
DISL,ioos:station:DISL:DISL:1,2019-06-07T15:00:00Z,30.2513,-88.0778,-1.72,27.44,11111222 
DISL,ioos:station:DISL:DISL:1,2019-06-07T16:00:00Z,30.2513,-88.0778,-1.72,27.62,11111222 
DISL,ioos:station:DISL:DISL:1,2019-06-07T17:00:00Z,30.2513,-88.0778,-1.72,28.0,11111222 
DISL,ioos:station:DISL:DISL:1,2019-06-07T18:00:00Z,30.2513,-88.0778,-1.72,28.26,11111222 
DISL,ioos:station:DISL:DISL:1,2019-06-07T19:00:00Z,30.2513,-88.0778,-1.72,28.43,11111222 
DISL,ioos:station:DISL:DISL:1,2019-06-07T20:00:00Z,30.2513,-88.0778,-1.72,28.5,11111222 
DISL,ioos:station:DISL:DISL:1,2019-06-07T21:00:00Z,30.2513,-88.0778,-1.72,28.31,11111222 
DISL,ioos:station:DISL:DISL:1,2019-06-07T22:00:00Z,30.2513,-88.0778,-1.72,28.78,11111222 
DISL,ioos:station:DISL:DISL:1,2019-06-07T23:00:00Z,30.2513,-88.0778,-1.72,28.63,11111222 
DISL,ioos:station:DISL:DISL:1,2019-06-07T23:30:00Z,30.2513,-88.0778,-1.72,28.65,11111222 
DISL,ioos:station:DISL:DISL:1,2019-06-08T00:30:00Z,30.2513,-88.0778,-1.72,28.62,11111222 
DISL,ioos:station:DISL:DISL:1,2019-06-08T01:30:00Z,30.2513,-88.0778,-1.72,28.58,11111222 
DISL,ioos:station:DISL:DISL:1,2019-06-08T03:00:00Z,30.2513,-88.0778,-1.72,28.58,11111222 
DISL,ioos:station:DISL:DISL:1,2019-06-08T03:30:00Z,30.2513,-88.0778,-1.72,28.36,11111222 
DISL,ioos:station:DISL:DISL:1,2019-06-08T04:30:00Z,30.2513,-88.0778,-1.72,28.08,11111222 
DISL,ioos:station:DISL:DISL:1,2019-06-08T06:00:00Z,30.2513,-88.0778,-1.72,27.94,11111222 
DISL,ioos:station:DISL:DISL:1,2019-06-08T07:00:00Z,30.2513,-88.0778,-1.72,27.89,11111222 
DISL,ioos:station:DISL:DISL:1,2019-06-08T08:00:00Z,30.2513,-88.0778,-1.72,27.89,11111222 
DISL,ioos:station:DISL:DISL:1,2019-06-08T09:00:00Z,30.2513,-88.0778,-1.72,27.85,11111222 
DISL,ioos:station:DISL:DISL:1,2019-06-08T10:00:00Z,30.2513,-88.0778,-1.72,27.74,11111222 
DISL,ioos:station:DISL:DISL:1,2019-06-08T11:00:00Z,30.2513,-88.0778,-1.72,27.76,11111222 
DISL,ioos:station:DISL:DISL:1,2019-06-08T12:00:00Z,30.2513,-88.0778,-1.72,27.75,11111222 
DISL,ioos:station:DISL:DISL:1,2019-06-08T13:00:00Z,30.2513,-88.0778,-1.72,27.77,11111222 
DISL,ioos:station:DISL:DISL:1,2019-06-08T14:00:00Z,30.2513,-88.0778,-1.72,27.84,11111222 
DISL,ioos:station:DISL:DISL:1,2019-06-08T15:00:00Z,30.2513,-88.0778,-1.72,27.85,11111222 
DISL,ioos:station:DISL:DISL:1,2019-06-08T16:00:00Z,30.2513,-88.0778,-1.72,28.05,11111222 
DISL,ioos:station:DISL:DISL:1,2019-06-08T17:00:00Z,30.2513,-88.0778,-1.72,27.74,11111222 
DISL,ioos:station:DISL:DISL:1,2019-06-08T18:00:00Z,30.2513,-88.0778,-1.72,28.08,11111222 
DISL,ioos:station:DISL:DISL:1,2019-06-08T19:00:00Z,30.2513,-88.0778,-1.72,29.13,11111222 
DISL,ioos:station:DISL:DISL:1,2019-06-09T00:30:00Z,30.2513,-88.0778,-1.72,29.03,11111222 
DISL,ioos:station:DISL:DISL:1,2019-06-09T01:30:00Z,30.2513,-88.0778,-1.72,29.17,11111222 
DISL,ioos:station:DISL:DISL:1,2019-06-09T02:30:00Z,30.2513,-88.0778,-1.72,28.81,11111222 
DISL,ioos:station:DISL:DISL:1,2019-06-09T03:30:00Z,30.2513,-88.0778,-1.72,28.75,11111222 
DISL,ioos:station:DISL:DISL:1,2019-06-09T04:30:00Z,30.2513,-88.0778,-1.72,28.85,11111222 
DISL,ioos:station:DISL:DISL:1,2019-06-09T05:30:00Z,30.2513,-88.0778,-1.72,28.6,11111222 
DISL,ioos:station:DISL:DISL:1,2019-06-09T06:30:00Z,30.2513,-88.0778,-1.72,28.63,11111222 
DISL,ioos:station:DISL:DISL:1,2019-06-09T07:30:00Z,30.2513,-88.0778,-1.72,28.6,11111222 
DISL,ioos:station:DISL:DISL:1,2019-06-09T08:30:00Z,30.2513,-88.0778,-1.72,28.38,11111222 
DISL,ioos:station:DISL:DISL:1,2019-06-09T09:30:00Z,30.2513,-88.0778,-1.72,28.46,11111222 
DISL,ioos:station:DISL:DISL:1,2019-06-09T11:00:00Z,30.2513,-88.0778,-1.72,28.38,11111222 
DISL,ioos:station:DISL:DISL:1,2019-06-09T12:00:00Z,30.2513,-88.0778,-1.72,28.33,11111222 
DISL,ioos:station:DISL:DISL:1,2019-06-09T13:00:00Z,30.2513,-88.0778,-1.72,28.29,11111222 
DISL,ioos:station:DISL:DISL:1,2019-06-09T14:00:00Z,30.2513,-88.0778,-1.72,28.11,11111222 
DISL,ioos:station:DISL:DISL:1,2019-06-09T15:00:00Z,30.2513,-88.0778,-1.72,27.71,11111222 
DISL,ioos:station:DISL:DISL:1,2019-06-09T16:00:00Z,30.2513,-88.0778,-1.72,27.57,11111222 
DISL,ioos:station:DISL:DISL:1,2019-06-09T17:00:00Z,30.2513,-88.0778,-1.72,27.27,11111222 
DISL,ioos:station:DISL:DISL:1,2019-06-09T18:00:00Z,30.2513,-88.0778,-1.72,27.45,11111222 
DISL,ioos:station:DISL:DISL:1,2019-06-09T19:00:00Z,30.2513,-88.0778,-1.72,27.5,11111222 
DISL,ioos:station:DISL:DISL:1,2019-06-09T20:00:00Z,30.2513,-88.0778,-1.72,27.85,11111222 
DISL,ioos:station:DISL:DISL:1,2019-06-09T21:00:00Z,30.2513,-88.0778,-1.72,29.84,11111222 
DISL,ioos:station:DISL:DISL:1,2019-06-09T22:00:00Z,30.2513,-88.0778,-1.72,30.65,11111222 
DISL,ioos:station:DISL:DISL:1,2019-06-09T23:00:00Z,30.2513,-88.0778,-1.72,30.2,11111222 
DISL,ioos:station:DISL:DISL:1,2019-06-10T00:00:00Z,30.2513,-88.0778,-1.72,30.7,11111222 
DISL,ioos:station:DISL:DISL:1,2019-06-10T01:00:00Z,30.2513,-88.0778,-1.72,30.59,11111222 
DISL,ioos:station:DISL:DISL:1,2019-06-10T02:00:00Z,30.2513,-88.0778,-1.72,30.44,11111222 
DISL,ioos:station:DISL:DISL:1,2019-06-10T03:00:00Z,30.2513,-88.0778,-1.72,28.78,11111222 
DISL,ioos:station:DISL:DISL:1,2019-06-10T04:00:00Z,30.2513,-88.0778,-1.72,28.79,11111222 
DISL,ioos:station:DISL:DISL:1,2019-06-10T05:00:00Z,30.2513,-88.0778,-1.72,29.18,11111222 
DISL,ioos:station:DISL:DISL:1,2019-06-10T06:00:00Z,30.2513,-88.0778,-1.72,29.2,11111222 
DISL,ioos:station:DISL:DISL:1,2019-06-10T07:00:00Z,30.2513,-88.0778,-1.72,29.12,11111222 
DISL,ioos:station:DISL:DISL:1,2019-06-10T08:00:00Z,30.2513,-88.0778,-1.72,28.51,11111222 
DISL,ioos:station:DISL:DISL:1,2019-06-10T09:00:00Z,30.2513,-88.0778,-1.72,28.57,11111222 
DISL,ioos:station:DISL:DISL:1,2019-06-10T10:00:00Z,30.2513,-88.0778,-1.72,28.53,11111222 
DISL,ioos:station:DISL:DISL:1,2019-06-10T11:00:00Z,30.2513,-88.0778,-1.72,28.31,11111222 
DISL,ioos:station:DISL:DISL:1,2019-06-10T12:00:00Z,30.2513,-88.0778,-1.72,28.5,11111222 
DISL,ioos:station:DISL:DISL:1,2019-06-10T13:00:00Z,30.2513,-88.0778,-1.72,28.35,11111222 
DISL,ioos:station:DISL:DISL:1,2019-06-10T14:00:00Z,30.2513,-88.0778,-1.72,27.81,11111222 
DISL,ioos:station:DISL:DISL:1,2019-06-10T15:00:00Z,30.2513,-88.0778,-1.72,27.26,11111222 
DISL,ioos:station:DISL:DISL:1,2019-06-10T16:00:00Z,30.2513,-88.0778,-1.72,27.34,11111222 
DISL,ioos:station:DISL:DISL:1,2019-06-10T17:00:00Z,30.2513,-88.0778,-1.72,26.61,11111222 
DISL,ioos:station:DISL:DISL:1,2019-06-10T18:00:00Z,30.2513,-88.0778,-1.72,26.61,11111222 
DISL,ioos:station:DISL:DISL:1,2019-06-10T19:00:00Z,30.2513,-88.0778,-1.72,26.37,11111222 
DISL,ioos:station:DISL:DISL:1,2019-06-10T20:00:00Z,30.2513,-88.0778,-1.72,28.39,11111222 
DISL,ioos:station:DISL:DISL:1,2019-06-10T21:00:00Z,30.2513,-88.0778,-1.72,29.46,11111222 
DISL,ioos:station:DISL:DISL:1,2019-06-10T22:00:00Z,30.2513,-88.0778,-1.72,30.32,11111222 
DISL,ioos:station:DISL:DISL:1,2019-06-10T23:00:00Z,30.2513,-88.0778,-1.72,30.61,11111222 
DISL,ioos:station:DISL:DISL:1,2019-06-11T00:00:00Z,30.2513,-88.0778,-1.72,30.75,11111222 
DISL,ioos:station:DISL:DISL:1,2019-06-11T01:00:00Z,30.2513,-88.0778,-1.72,30.65,11111222 
DISL,ioos:station:DISL:DISL:1,2019-06-11T02:00:00Z,30.2513,-88.0778,-1.72,30.1,11111222 
DISL,ioos:station:DISL:DISL:1,2019-06-11T03:00:00Z,30.2513,-88.0778,-1.72,30.03,11111222 
DISL,ioos:station:DISL:DISL:1,2019-06-11T04:00:00Z,30.2513,-88.0778,-1.72,29.15,11111222 
DISL,ioos:station:DISL:DISL:1,2019-06-11T05:00:00Z,30.2513,-88.0778,-1.72,29.05,11111222 
DISL,ioos:station:DISL:DISL:1,2019-06-11T06:00:00Z,30.2513,-88.0778,-1.72,28.8,11111222 
DISL,ioos:station:DISL:DISL:1,2019-06-11T07:00:00Z,30.2513,-88.0778,-1.72,28.58,11111222 
DISL,ioos:station:DISL:DISL:1,2019-06-11T08:00:00Z,30.2513,-88.0778,-1.72,28.32,11111222 
DISL,ioos:station:DISL:DISL:1,2019-06-11T09:00:00Z,30.2513,-88.0778,-1.72,28.18,11111222 
DISL,ioos:station:DISL:DISL:1,2019-06-11T10:00:00Z,30.2513,-88.0778,-1.72,28.03,11111222 
DISL,ioos:station:DISL:DISL:1,2019-06-11T11:00:00Z,30.2513,-88.0778,-1.72,27.94,11111222 
DISL,ioos:station:DISL:DISL:1,2019-06-11T12:00:00Z,30.2513,-88.0778,-1.72,28.01,11111222 
DISL,ioos:station:DISL:DISL:1,2019-06-11T13:00:00Z,30.2513,-88.0778,-1.72,28.2,11111222 
DISL,ioos:station:DISL:DISL:1,2019-06-11T14:00:00Z,30.2513,-88.0778,-1.72,28.15,11111222 
DISL,ioos:station:DISL:DISL:1,2019-06-11T15:00:00Z,30.2513,-88.0778,-1.72,27.66,11111222 
DISL,ioos:station:DISL:DISL:1,2019-06-11T16:00:00Z,30.2513,-88.0778,-1.72,27.12,11111222 
DISL,ioos:station:DISL:DISL:1,2019-06-11T17:00:00Z,30.2513,-88.0778,-1.72,26.84,11111222 
DISL,ioos:station:DISL:DISL:1,2019-06-11T18:00:00Z,30.2513,-88.0778,-1.72,26.79,11111222 
DISL,ioos:station:DISL:DISL:1,2019-06-11T21:00:00Z,30.2513,-88.0778,-1.72,28.05,11111222 
DISL,ioos:station:DISL:DISL:1,2019-06-11T22:00:00Z,30.2513,-88.0778,-1.72,29.55,11111222 
DISL,ioos:station:DISL:DISL:1,2019-06-11T23:00:00Z,30.2513,-88.0778,-1.72,29.66,11111222 
DISL,ioos:station:DISL:DISL:1,2019-06-12T00:00:00Z,30.2513,-88.0778,-1.72,29.79,11111222 
DISL,ioos:station:DISL:DISL:1,2019-06-12T01:00:00Z,30.2513,-88.0778,-1.72,29.8,11111222 
DISL,ioos:station:DISL:DISL:1,2019-06-12T02:00:00Z,30.2513,-88.0778,-1.72,29.96,11111222 
DISL,ioos:station:DISL:DISL:1,2019-06-12T03:00:00Z,30.2513,-88.0778,-1.72,29.7,11111222 
DISL,ioos:station:DISL:DISL:1,2019-06-12T04:00:00Z,30.2513,-88.0778,-1.72,29.12,11111222 
DISL,ioos:station:DISL:DISL:1,2019-06-12T05:00:00Z,30.2513,-88.0778,-1.72,28.58,11111222 
DISL,ioos:station:DISL:DISL:1,2019-06-12T06:00:00Z,30.2513,-88.0778,-1.72,28.32,11111222 
DISL,ioos:station:DISL:DISL:1,2019-06-12T07:00:00Z,30.2513,-88.0778,-1.72,28.24,11111222 
DISL,ioos:station:DISL:DISL:1,2019-06-12T08:00:00Z,30.2513,-88.0778,-1.72,28.24,11111222 
DISL,ioos:station:DISL:DISL:1,2019-06-12T09:00:00Z,30.2513,-88.0778,-1.72,27.18,11111222 